Weather in Auckland

New Zealand     36°51′06″S   174°45′46″E
temp.,
°C
wind,
m/s
gust,
m/s
humid.,
%
clouds,
%
prec.,
mm/h
press.,
hPa
HPBL,
m
7 march, sun
sun701:00+17nw4891100 2.3 1001527
04:00+16w398595 0.1 1000600
07:00+15w4108492 0.2 1000570
10:00+19w596272 0.1 10011419
13:00+22w6114865 0.3 10012011
16:00+21wsw712500 0.0 10011833
19:00+19wsw611590 0.1 10021595
22:00+17wsw510671 0.1 10051069
8 march, mon
mon801:00+16wsw410712 0.1 1007961
04:00+16wsw4107140 0.0 10081066
07:00+16wsw5117049 0.0 10101228
10:00+17sw6106280 0.0 10121322
13:00+20sw695489 0.0 10131397
16:00+20sw6105357 0.0 10131408
19:00+18sw596569 0.0 10141285
22:00+16sw387363 0.0 1016671
9 march, tue
tue901:00+15wsw487532 0.0 1017520
04:00+16sw367250 0.0 1017663
07:00+16sw376875 0.1 1018781
10:00+19sw365529 0.0 10191191
13:00+21sw344935 0.0 10191434
16:00+21sw455018 0.0 10171390
19:00+18wsw346335 0.0 10181031
22:00+15wsw247680 0.0 1019316
10 march, wed
wed1001:00+14w227789 0.0 1019134
04:00+13wnw128078 0.0 101882
07:00+15nw237489 0.0 1018144
10:00+18nnw2463100 0.0 1018620
13:00+20nw3558100 0.1 10171268
16:00+20wnw4660100 0.1 10151220
19:00+18wnw4873100 0.1 1014770
22:00+18nw3878100 0.1 1015604
11 march, thu
thu1101:00+17nw41089100 0.6 1014687
04:00+18nw399397 1.4 1013617
07:00+17sw249387 5.2 1014231
10:00+19sw367757 0.4 1015843
13:00+22sw474951 0.4 10161726
16:00+22sw57460 0.0 10151758
19:00+19sw46600 0.0 10161216
22:00+15wsw25770 0.0 1018330